Regional Weather Roundup
Issued by NWS Upton, NY

Current Version | Previous Version | Text Only | Print | Product List | Glossary On
Versions: 1 2 3 4 5 6 7 8 9 10 11 12 13 14 15 16 17 18 19 20 21 22 23 24 25 26 27 28 29 30 31 32 33 34 35 36 37 38 39 40 41 42 43 44 45 46 47 48 49 50
000 ASUS41 KOKX 280505 RWROKX REGIONAL WEATHER ROUNDUP NATIONAL WEATHER SERVICE NEW YORK NY 100 AM EDT WED SEP 28 2016 NOTE: "FAIR" INDICATES FEW OR NO CLOUDS BELOW 12,000 FEET WITH NO SIGNIFICANT WEATHER AND/OR OBSTRUCTIONS TO VISIBILITY. NYZ071-072-176-178-NJZ106-104-280600- NEW YORK CITY METRO AREA CITY SKY/WX TMP DP RH WIND PRES REMARKS Central Park CLEAR 65 59 81 CALM 30.01R LaGuardia APRT PTCLDY 69 61 75 NW5 29.98R Kennedy INTL PTCLDY 63 59 87 E5 29.99R Newark/Liberty CLEAR 63 55 75 CALM 29.98S Bronx Bot Gard N/A 61 59 94 N1 30.00R Wall St Helipt CLEAR 66 63 88 W3 29.99S Teterboro CLEAR 60 52 74 CALM 29.98S $$ NYZ177-179-078>081-280600- LONG ISLAND NEW YORK CITY SKY/WX TMP DP RH WIND PRES REMARKS Farmingdale CLEAR 60 58 92 N3 29.99R MacArthur/ISP PTCLDY 59 58 96 N3 29.99R Shirley PTCLDY 60 59 96 N3 30.00R FOG Riverhead NOT AVBL Westhampton CLOUDY 61 59 93 CALM 30.01R Southampton N/A 64 63 94 CALM 29.96R Bridgehampton N/A N/A N/A N/A CALM 29.85S East Hampton MOCLDY 62 61 97 CALM 29.99R Montauk N/A 64 63 96 CALM 30.01R $$ NYZ052-065-067-280600- HUDSON VALLEY CITY SKY/WX TMP DP RH WIND PRES REMARKS White Plains CLEAR 59 57 93 W6 29.99S Newburgh CLEAR 52 52 100 CALM 30.02R Montgomery PTCLDY 50 48 93 CALM 30.01R Poughkeepsie CLEAR 50 49 96 CALM 30.01R Albany PTCLDY 54 51 90 CALM 30.02R $$ NJZ001-105-106-008-010-013-015-019>022-104-280600- NEW JERSEY CITY SKY/WX TMP DP RH WIND PRES REMARKS Newark/Liberty CLEAR 63 55 75 CALM 29.98S Teterboro CLEAR 60 52 74 CALM 29.98S Caldwell CLEAR 54 52 93 CALM 30.00S Morristown FOG 48 46 93 CALM 30.00S VSB 1 Somerville PTCLDY 50 48 93 NW5 29.98R Linden NOT AVBL Sussex CLEAR 47 47 100 CALM 30.01S FOG Abdover N/A 49 48 97 CALM 30.00S Trenton CLEAR 55 51 86 N3 29.98S Millville PTCLDY 56 56 100 CALM 29.98R Atlantic City CLOUDY 62 60 93 NW3 29.98R Wrightstown FOG 57 57 98 CALM 29.96R VSB 1 Toms River MOCLDY 56 54 93 CALM 29.99R Belmar CLEAR 60 59 96 CALM 30.00R $$ PAZ047>061-062-071-280600- EASTERN PENNSYLVANIA CITY SKY/WX TMP DP RH WIND PRES REMARKS Philadelphia PTCLDY 63 59 87 CALM 29.98R Allentown CLEAR 50 46 86 N5 29.99R Scranton CLEAR 53 47 79 E6 30.00R $$ CTZ002-004>006-009-010-012-RIZ004-006-007-MAZ004-011-015-280600- SOUTHERN NEW ENGLAND IN CT CITY SKY/WX TMP DP RH WIND PRES REMARKS Bradley INTL PTCLDY 56 53 90 N5 30.02R Hartford PTCLDY 58 58 100 CALM 30.01R Danbury CLEAR 50 49 96 CALM 30.03R Wtrbury/Oxford N/A 55 52 88 CALM 30.03R Bridgeport NOT AVBL Meriden NOT AVBL New Haven CLEAR 58 56 93 CALM 30.00R Chester FAIR 57 57 100 CALM 30.01R FOG Groton MOCLDY 62 59 90 N5 30.00R Wilimantic MOCLDY 57 56 96 N3 30.03R IN RI CITY SKY/WX TMP DP RH WIND PRES REMARKS Providence CLOUDY 61 59 93 N6 30.03R Block Island CLOUDY 65 64 97 CALM 30.01R Westerly CLOUDY 62 58 86 N5 30.01R FOG IN MA CITY SKY/WX TMP DP RH WIND PRES REMARKS Boston PTCLDY 60 59 96 NE5 30.04R Worcester FOG 58 57 97 NE5 30.05R VSB 1/4 Westfield CLEAR 53 52 96 N5 30.03R Provincetown CLOUDY 61 60 97 E5 30.04R Nantucket LGT RAIN 65 64 97 CALM 30.01R $$ ANZ330-335-338-340-345-350-353-355-280600- COASTAL MARINE OBSERVATIONS STATION/POSITION TIME SKY/WX TEMP WIND PRES VSBY WAVE AIR SEA DIR/SP/G HT/PER (UTC) (F) (DEG/KT/KT) (MB) (MI) (FT/S) NY HARB ENTRANCE 0350 69 71 270/ 6/ 8 1014.9 3/ 7 20S FIRE ISLAND 0350 69 69 CALM / 2 1014.7 4/ 7 GREAT SOUTH BAY 0415 67 70 340/ 4/ 4 N/A 23 SSW MONTAUK P 0350 67 68 CALM / 2 1015.8 5/ 7 15 E BARNEGAT LI 0430 71 N/A 4/ 6 HUDSON CANYON 0350 69 69 1014.8 5/ 6 KINGS POINT 0424 66 72 1015.2 EXECUTION ROCKS 0445 67 350/ 6/ 8 N/A CENTRAL LI SOUND 0430 69 72 280/ 4/ 6 N/A 0 EASTERN LI SOUND NOT AVBL ROBBINS REEF 0424 66 270/ 6/ 7 1015.5 $$ >>>>>>>>>>>>>>>>>>>>>>>>>>>> KEY <<<<<<<<<<<<<<<<<<<<<<<<<<< > < > SKY/WX - Sky Condition/Present Weather < > TMP - Temperature in Fahrenheit < > DP - Dew Point in Fahrenheit < > RH - Relative Humidity in Percent < > WIND - Direction (from) and Speed in MPH < > PRES - Mean Sea Level Pressure (inches of Hg) < > WCI - Wind Chill Index < > VSB - VISIBILITY IN MILES < > HX - HEAT INDEX < > TC - TEMPERATURE IN CELSIUS < > VRB - VARIABLE WIND DIRECTION < > < >>>>>>>>>>>>>>>>>>>>>>>>>>>> KEY <<<<<<<<<<<<<<<<<<<<<<<<<<<

USA.gov is the U.S. government's official web portal to all federal, state and local government web resources and services.